{"data":{"norad_id":63052,"epoch":"2026-05-25T01:19:58.555776Z","epoch_age_seconds":63493,"freshness":"FRESH","line1":"1 63052U 25035A   26145.05553884  .00163945  00000+0  12540-2 0  9998","line2":"2 63052  43.0000 274.8195 0001587  40.5277 319.5708 15.70879999 73239","mean_motion":15.70879999,"eccentricity":0.0001587,"inclination_deg":43,"raan_deg":274.8195,"arg_perigee_deg":40.5277,"mean_anomaly_deg":319.5708,"bstar":0.001254,"rev_number":7323,"period_min":91.668364287322,"perigee_km":355.31197140125,"apogee_km":357.44950733172,"semimajor_km":6734.5177393665,"source":"CELESTRAK","updated_at":"2026-05-25T13:38:19.870815Z"}}